Torna al catalogo

STARLINK-31384

AttivoComunicazioniVLEO
NORAD 58983·PAYLOAD·🇺🇸 United States

Lanciato Feb 15, 2024 da Vandenberg Space Force Base

Loading…

Prossimi Passaggi (prossime 24 ore)

TLE

AggiornatoSource: CelesTrak SupGP

Epoca: Sep 15, 2026, 02:40 UTC

1 58983C 24031U   26258.11159722  .00058815  00000+0  17408-2 0  2580
2 58983  53.1564 133.0430 0001038  70.4735  94.5296 15.34305268    14

Traccia STARLINK-31384 in tempo reale con AllMySat

Download on the App Store